Time,TemperatureF,DewpointF,PressureIn,WindDirection,WindDirectionDegrees,WindSpeedMPH,WindSpeedGustMPH,Humidity,HourlyPrecipIn,Conditions,Clouds,dailyrainin,SoftwareType,DateUTC
2013-01-25 00:02:00,42.3,39.0,29.93,ESE,115,3.0,13.0,88,0.00,,,0.00,WeatherCatV1.12B45,2013-01-25 08:02:00,
2013-01-25 00:07:00,42.3,39.0,29.93,East,90,9.0,10.0,88,0.00,,,0.00,WeatherCatV1.12B45,2013-01-25 08:07:00,
2013-01-25 00:12:00,42.4,39.1,29.93,ENE,70,1.0,13.0,88,0.00,,,0.00,WeatherCatV1.12B45,2013-01-25 08:12:00,
2013-01-25 00:17:00,42.5,39.2,29.94,SE,134,6.0,9.0,88,0.00,,,0.00,WeatherCatV1.12B45,2013-01-25 08:17:00,
2013-01-25 00:22:00,42.5,38.9,29.93,SE,144,6.0,10.0,87,0.00,,,0.00,WeatherCatV1.12B45,2013-01-25 08:22:00,
2013-01-25 00:27:00,42.6,39.0,29.93,ESE,113,0.0,6.0,87,0.00,,,0.00,WeatherCatV1.12B45,2013-01-25 08:27:00,
2013-01-25 00:32:00,42.6,39.0,29.93,East,82,12.0,12.0,87,0.00,,,0.00,WeatherCatV1.12B45,2013-01-25 08:32:00,
2013-01-25 00:37:00,42.7,39.4,29.93,ESE,121,4.0,9.0,88,0.00,,,0.00,WeatherCatV1.12B45,2013-01-25 08:37:00,
2013-01-25 00:42:00,42.8,39.5,29.93,East,88,5.0,8.0,88,0.00,,,0.00,WeatherCatV1.12B45,2013-01-25 08:42:00,
2013-01-25 00:47:00,42.9,39.6,29.93,SE,133,4.0,11.0,88,0.00,,,0.00,WeatherCatV1.12B45,2013-01-25 08:47:00,
2013-01-25 00:52:00,43.0,39.7,29.93,ESE,121,4.0,9.0,88,0.00,,,0.00,WeatherCatV1.12B45,2013-01-25 08:52:00,
2013-01-25 00:57:00,43.0,39.7,29.92,ENE,58,1.0,7.0,88,0.00,,,0.00,WeatherCatV1.12B45,2013-01-25 08:57:00,
2013-01-25 01:02:00,42.5,39.2,29.92,East,100,2.0,3.0,88,0.00,,,0.00,WeatherCatV1.12B45,2013-01-25 09:02:00,
2013-01-25 01:07:00,41.8,38.8,29.92,SW,232,1.0,5.0,89,0.00,,,0.00,WeatherCatV1.12B45,2013-01-25 09:07:00,
2013-01-25 01:12:00,41.4,38.7,29.92,ENE,58,5.0,7.0,90,0.00,,,0.00,WeatherCatV1.12B45,2013-01-25 09:12:00,
2013-01-25 01:17:00,41.4,39.0,29.92,ENE,70,4.0,6.0,91,0.00,,,0.00,WeatherCatV1.12B45,2013-01-25 09:17:00,
2013-01-25 01:22:00,41.3,38.9,29.91,SE,138,1.0,3.0,91,0.00,,,0.00,WeatherCatV1.12B45,2013-01-25 09:22:00,
2013-01-25 01:27:00,41.2,38.8,29.91,ENE,70,0.0,8.0,91,0.00,,,0.00,WeatherCatV1.12B45,2013-01-25 09:27:00,
2013-01-25 01:32:00,41.4,39.3,29.91,ENE,74,5.0,14.0,92,0.00,,,0.00,WeatherCatV1.12B45,2013-01-25 09:32:00,
2013-01-25 01:37:00,41.5,39.1,29.91,NW,316,5.0,6.0,91,0.00,,,0.00,WeatherCatV1.12B45,2013-01-25 09:37:00,
2013-01-25 01:42:00,41.7,39.3,29.91,East,89,5.0,6.0,91,0.00,,,0.00,WeatherCatV1.12B45,2013-01-25 09:42:00,
2013-01-25 01:47:00,42.0,39.3,29.91,East,91,2.0,5.0,90,0.00,,,0.00,WeatherCatV1.12B45,2013-01-25 09:47:00,
2013-01-25 01:52:00,42.0,39.3,29.92,ENE,74,0.0,2.0,90,0.00,,,0.00,WeatherCatV1.12B45,2013-01-25 09:52:00,
2013-01-25 01:57:00,42.0,39.3,29.91,WNW,283,0.0,1.0,90,0.00,,,0.00,WeatherCatV1.12B45,2013-01-25 09:57:00,
2013-01-25 02:02:00,42.1,39.4,29.91,East,97,1.0,4.0,90,0.00,,,0.00,WeatherCatV1.12B45,2013-01-25 10:02:00,
2013-01-25 02:07:00,42.0,39.3,29.92,SSW,207,0.0,2.0,90,0.00,,,0.00,WeatherCatV1.12B45,2013-01-25 10:07:00,
2013-01-25 02:12:00,41.7,39.0,29.92,West,271,0.0,3.0,90,0.00,,,0.00,WeatherCatV1.12B45,2013-01-25 10:12:00,
2013-01-25 02:17:00,41.6,39.2,29.92,NNW,341,0.0,3.0,91,0.00,,,0.00,WeatherCatV1.12B45,2013-01-25 10:17:00,
2013-01-25 02:22:00,41.6,39.2,29.92,NE,47,2.0,3.0,91,0.00,,,0.00,WeatherCatV1.12B45,2013-01-25 10:22:00,
2013-01-25 02:27:00,41.7,39.0,29.92,NW,308,0.0,4.0,90,0.00,,,0.00,WeatherCatV1.12B45,2013-01-25 10:27:00,
2013-01-25 02:32:00,41.5,38.8,29.93,WNW,295,1.0,3.0,90,0.00,,,0.00,WeatherCatV1.12B45,2013-01-25 10:32:00,
2013-01-25 02:37:00,41.3,38.9,29.93,NE,53,1.0,3.0,91,0.00,,,0.00,WeatherCatV1.12B45,2013-01-25 10:37:00,
2013-01-25 02:42:00,41.3,38.9,29.93,WSW,238,2.0,4.0,91,0.00,,,0.00,WeatherCatV1.12B45,2013-01-25 10:42:00,
2013-01-25 02:47:00,41.2,38.8,29.93,North,358,1.0,4.0,91,0.00,,,0.00,WeatherCatV1.12B45,2013-01-25 10:47:00,
2013-01-25 02:52:00,41.4,39.0,29.93,ENE,74,0.0,2.0,91,0.00,,,0.00,WeatherCatV1.12B45,2013-01-25 10:52:00,
2013-01-25 02:57:00,41.6,38.9,29.93,ENE,76,2.0,3.0,90,0.00,,,0.00,WeatherCatV1.12B45,2013-01-25 10:57:00,
2013-01-25 03:02:00,41.4,38.7,29.92,West,281,1.0,1.0,90,0.00,,,0.00,WeatherCatV1.12B45,2013-01-25 11:02:00,
2013-01-25 03:07:00,41.3,38.9,29.92,WNW,285,0.0,2.0,91,0.00,,,0.00,WeatherCatV1.12B45,2013-01-25 11:07:00,
2013-01-25 03:12:00,41.6,39.2,29.92,NNW,345,0.0,2.0,91,0.00,,,0.00,WeatherCatV1.12B45,2013-01-25 11:12:00,
2013-01-25 03:17:00,41.6,39.2,29.92,NW,310,6.0,7.0,91,0.00,,,0.00,WeatherCatV1.12B45,2013-01-25 11:17:00,
2013-01-25 03:22:00,41.9,39.5,29.92,ESE,113,0.0,1.0,91,0.00,,,0.00,WeatherCatV1.12B45,2013-01-25 11:22:00,
2013-01-25 03:27:00,42.2,39.8,29.92,ENE,74,0.0,3.0,91,0.00,,,0.00,WeatherCatV1.12B45,2013-01-25 11:27:00,
2013-01-25 03:32:00,42.4,40.0,29.92,WNW,291,0.0,0.0,91,0.00,,,0.00,WeatherCatV1.12B45,2013-01-25 11:32:00,
2013-01-25 03:37:00,42.5,40.1,29.92,East,86,2.0,2.0,91,0.00,,,0.00,WeatherCatV1.12B45,2013-01-25 11:37:00,
2013-01-25 03:42:00,42.6,39.9,29.92,ENE,63,2.0,7.0,90,0.00,,,0.00,WeatherCatV1.12B45,2013-01-25 11:42:00,
2013-01-25 03:47:00,42.4,39.7,29.92,ENE,70,3.0,3.0,90,0.00,,,0.00,WeatherCatV1.12B45,2013-01-25 11:47:00,
2013-01-25 03:52:00,42.2,39.8,29.92,North,354,4.0,4.0,91,0.00,,,0.00,WeatherCatV1.12B45,2013-01-25 11:52:00,
2013-01-25 03:57:00,42.4,40.0,29.92,ESE,103,2.0,6.0,91,0.00,,,0.00,WeatherCatV1.12B45,2013-01-25 11:57:00,
2013-01-25 04:02:00,42.7,40.0,29.92,ESE,122,3.0,5.0,90,0.00,,,0.00,WeatherCatV1.12B45,2013-01-25 12:02:00,
2013-01-25 04:07:00,42.0,39.0,29.92,ENE,70,3.0,6.0,89,0.00,,,0.00,WeatherCatV1.12B45,2013-01-25 12:07:00,
2013-01-25 04:12:00,41.4,38.7,29.92,NW,305,1.0,8.0,90,0.00,,,0.00,WeatherCatV1.12B45,2013-01-25 12:12:00,
2013-01-25 04:17:00,41.1,38.7,29.93,WNW,293,6.0,6.0,91,0.00,,,0.00,WeatherCatV1.12B45,2013-01-25 12:17:00,
2013-01-25 04:22:00,41.4,39.3,29.93,NW,305,4.0,5.0,92,0.00,,,0.00,WeatherCatV1.12B45,2013-01-25 12:22:00,
2013-01-25 04:27:00,41.9,39.5,29.93,NE,39,0.0,6.0,91,0.00,,,0.00,WeatherCatV1.12B45,2013-01-25 12:27:00,
2013-01-25 04:32:00,42.3,39.9,29.93,ENE,72,4.0,7.0,91,0.00,,,0.00,WeatherCatV1.12B45,2013-01-25 12:32:00,
2013-01-25 04:37:00,42.7,40.0,29.93,NW,322,0.0,1.0,90,0.00,,,0.00,WeatherCatV1.12B45,2013-01-25 12:37:00,
2013-01-25 04:42:00,42.5,39.5,29.93,NNW,329,0.0,3.0,89,0.00,,,0.00,WeatherCatV1.12B45,2013-01-25 12:42:00,
2013-01-25 04:47:00,42.1,39.4,29.93,NW,319,1.0,2.0,90,0.00,,,0.00,WeatherCatV1.12B45,2013-01-25 12:47:00,
2013-01-25 04:52:00,41.8,39.1,29.93,NW,318,0.0,3.0,90,0.00,,,0.00,WeatherCatV1.12B45,2013-01-25 12:52:00,
2013-01-25 04:57:00,41.8,39.4,29.93,ENE,68,4.0,5.0,91,0.00,,,0.00,WeatherCatV1.12B45,2013-01-25 12:57:00,
2013-01-25 05:02:00,41.9,39.5,29.94,East,84,2.0,5.0,91,0.00,,,0.00,WeatherCatV1.12B45,2013-01-25 13:02:00,
2013-01-25 05:07:00,41.8,39.1,29.94,NNW,327,1.0,2.0,90,0.00,,,0.00,WeatherCatV1.12B45,2013-01-25 13:07:00,
2013-01-25 05:12:00,41.8,39.1,29.94,NNW,335,0.0,1.0,90,0.00,,,0.00,WeatherCatV1.12B45,2013-01-25 13:12:00,
2013-01-25 05:17:00,42.2,39.8,29.94,ENE,70,3.0,9.0,91,0.00,,,0.00,WeatherCatV1.12B45,2013-01-25 13:17:00,
2013-01-25 05:22:00,42.5,39.8,29.94,ESE,108,1.0,4.0,90,0.00,,,0.00,WeatherCatV1.12B45,2013-01-25 13:22:00,
2013-01-25 05:27:00,42.7,40.0,29.94,SSE,156,2.0,3.0,90,0.00,,,0.00,WeatherCatV1.12B45,2013-01-25 13:27:00,
2013-01-25 05:32:00,43.0,40.0,29.94,East,82,2.0,6.0,89,0.00,,,0.00,WeatherCatV1.12B45,2013-01-25 13:32:00,
2013-01-25 05:37:00,42.9,39.6,29.94,ENE,70,0.0,5.0,88,0.00,,,0.00,WeatherCatV1.12B45,2013-01-25 13:37:00,
2013-01-25 05:42:00,42.3,39.3,29.95,WSW,248,0.0,1.0,89,0.00,,,0.00,WeatherCatV1.12B45,2013-01-25 13:42:00,
2013-01-25 05:47:00,41.9,39.2,29.95,ESE,121,0.0,1.0,90,0.00,,,0.00,WeatherCatV1.12B45,2013-01-25 13:47:00,
2013-01-25 05:52:00,41.9,39.2,29.94,ENE,70,1.0,3.0,90,0.00,,,0.00,WeatherCatV1.12B45,2013-01-25 13:52:00,
2013-01-25 05:57:00,41.8,39.4,29.94,ESE,117,0.0,3.0,91,0.00,,,0.00,WeatherCatV1.12B45,2013-01-25 13:57:00,
2013-01-25 06:02:00,41.7,39.0,29.94,ENE,74,2.0,2.0,90,0.00,,,0.00,WeatherCatV1.12B45,2013-01-25 14:02:00,
2013-01-25 06:07:00,41.8,39.6,29.94,ESE,123,1.0,2.0,92,0.00,,,0.00,WeatherCatV1.12B45,2013-01-25 14:07:00,
2013-01-25 06:12:00,42.4,40.0,29.94,East,91,1.0,4.0,91,0.00,,,0.00,WeatherCatV1.12B45,2013-01-25 14:12:00,
2013-01-25 06:17:00,42.5,40.1,29.94,ENE,68,4.0,6.0,91,0.00,,,0.00,WeatherCatV1.12B45,2013-01-25 14:17:00,
2013-01-25 06:22:00,42.7,40.0,29.94,East,83,3.0,6.0,90,0.00,,,0.00,WeatherCatV1.12B45,2013-01-25 14:22:00,
2013-01-25 06:27:00,42.2,39.2,29.95,West,281,0.0,1.0,89,0.00,,,0.00,WeatherCatV1.12B45,2013-01-25 14:27:00,
2013-01-25 06:32:00,41.5,38.5,29.95,East,96,0.0,0.0,89,0.00,,,0.00,WeatherCatV1.12B45,2013-01-25 14:32:00,
2013-01-25 06:37:00,40.9,38.2,29.95,NW,316,1.0,1.0,90,0.00,,,0.00,WeatherCatV1.12B45,2013-01-25 14:37:00,
2013-01-25 06:42:00,40.6,38.2,29.95,ESE,118,0.0,2.0,91,0.00,,,0.00,WeatherCatV1.12B45,2013-01-25 14:42:00,
2013-01-25 06:47:00,40.6,38.5,29.95,NW,314,0.0,3.0,92,0.00,,,0.00,WeatherCatV1.12B45,2013-01-25 14:47:00,
2013-01-25 06:52:00,40.7,38.6,29.95,NE,35,0.0,1.0,92,0.00,,,0.00,WeatherCatV1.12B45,2013-01-25 14:52:00,
2013-01-25 06:57:00,40.7,38.6,29.95,NNW,333,0.0,1.0,92,0.00,,,0.00,WeatherCatV1.12B45,2013-01-25 14:57:00,
2013-01-25 07:02:00,40.7,38.6,29.95,East,79,0.0,1.0,92,0.00,,,0.00,WeatherCatV1.12B45,2013-01-25 15:02:00,
2013-01-25 07:07:00,40.8,38.7,29.95,North,356,0.0,2.0,92,0.00,,,0.00,WeatherCatV1.12B45,2013-01-25 15:07:00,
2013-01-25 07:12:00,40.7,38.6,29.95,NW,310,1.0,1.0,92,0.00,,,0.00,WeatherCatV1.12B45,2013-01-25 15:12:00,
2013-01-25 07:17:00,40.6,38.5,29.95,WNW,300,0.0,1.0,92,0.00,,,0.00,WeatherCatV1.12B45,2013-01-25 15:17:00,
2013-01-25 07:22:00,40.2,37.8,29.95,WNW,285,1.0,1.0,91,0.00,,,0.00,WeatherCatV1.12B45,2013-01-25 15:22:00,
2013-01-25 07:27:00,39.9,37.8,29.96,West,280,1.0,4.0,92,0.00,,,0.00,WeatherCatV1.12B45,2013-01-25 15:27:00,
2013-01-25 07:32:00,39.8,37.9,29.95,NNW,341,0.0,2.0,93,0.00,,,0.00,WeatherCatV1.12B45,2013-01-25 15:32:00,
2013-01-25 07:37:00,39.9,38.0,29.96,WNW,302,0.0,1.0,93,0.00,,,0.00,WeatherCatV1.12B45,2013-01-25 15:37:00,
2013-01-25 07:42:00,39.7,37.8,29.96,WNW,287,1.0,3.0,93,0.00,,,0.00,WeatherCatV1.12B45,2013-01-25 15:42:00,
2013-01-25 07:47:00,39.7,37.8,29.96,South,186,0.0,1.0,93,0.00,,,0.00,WeatherCatV1.12B45,2013-01-25 15:47:00,
2013-01-25 07:52:00,39.7,37.8,29.96,NNW,348,0.0,1.0,93,0.00,,,0.00,WeatherCatV1.12B45,2013-01-25 15:52:00,
2013-01-25 07:57:00,39.6,37.7,29.95,West,264,0.0,3.0,93,0.00,,,0.00,WeatherCatV1.12B45,2013-01-25 15:57:00,
2013-01-25 08:02:00,39.7,37.8,29.96,ESE,108,0.0,2.0,93,0.00,,,0.00,WeatherCatV1.12B45,2013-01-25 16:02:00,
2013-01-25 08:07:00,39.6,37.7,29.96,East,79,1.0,1.0,93,0.00,,,0.00,WeatherCatV1.12B45,2013-01-25 16:07:00,
2013-01-25 08:12:00,39.5,37.9,29.96,WSW,255,0.0,2.0,94,0.00,,,0.00,WeatherCatV1.12B45,2013-01-25 16:12:00,
2013-01-25 08:17:00,39.6,38.0,29.96,NW,319,3.0,3.0,94,0.00,,,0.00,WeatherCatV1.12B45,2013-01-25 16:17:00,
2013-01-25 08:22:00,40.2,38.3,29.96,NE,44,0.0,2.0,93,0.00,,,0.00,WeatherCatV1.12B45,2013-01-25 16:22:00,
2013-01-25 08:27:00,40.1,38.2,29.96,WNW,283,1.0,1.0,93,0.00,,,0.00,WeatherCatV1.12B45,2013-01-25 16:27:00,
2013-01-25 08:32:00,40.3,38.4,29.96,NW,321,1.0,2.0,93,0.00,,,0.00,WeatherCatV1.12B45,2013-01-25 16:32:00,
2013-01-25 08:37:00,40.4,38.5,29.96,East,89,1.0,3.0,93,0.00,,,0.00,WeatherCatV1.12B45,2013-01-25 16:37:00,
2013-01-25 08:42:00,40.0,38.1,29.96,WNW,295,1.0,2.0,93,0.00,,,0.00,WeatherCatV1.12B45,2013-01-25 16:42:00,
2013-01-25 08:47:00,40.0,38.1,29.96,NNW,327,2.0,2.0,93,0.00,,,0.00,WeatherCatV1.12B45,2013-01-25 16:47:00,
2013-01-25 08:52:00,40.3,38.4,29.96,ENE,78,0.0,4.0,93,0.00,,,0.00,WeatherCatV1.12B45,2013-01-25 16:52:00,
2013-01-25 08:57:00,40.6,38.7,29.96,ESE,122,0.0,0.0,93,0.00,,,0.00,WeatherCatV1.12B45,2013-01-25 16:57:00,
2013-01-25 09:02:00,40.8,38.9,29.96,ENE,77,1.0,2.0,93,0.00,,,0.00,WeatherCatV1.12B45,2013-01-25 17:02:00,
2013-01-25 09:07:00,41.0,38.9,29.96,WSW,249,0.0,2.0,92,0.00,,,0.00,WeatherCatV1.12B45,2013-01-25 17:07:00,
2013-01-25 09:12:00,41.3,39.2,29.96,SW,236,0.0,1.0,92,0.00,,,0.00,WeatherCatV1.12B45,2013-01-25 17:12:00,
2013-01-25 09:17:00,41.6,39.2,29.97,WNW,285,0.0,2.0,91,0.00,,,0.00,WeatherCatV1.12B45,2013-01-25 17:17:00,
2013-01-25 09:22:00,41.5,38.8,29.96,NNW,333,2.0,5.0,90,0.00,,,0.00,WeatherCatV1.12B45,2013-01-25 17:22:00,
2013-01-25 09:27:00,41.3,38.9,29.97,NNW,338,2.0,6.0,91,0.00,,,0.00,WeatherCatV1.12B45,2013-01-25 17:27:00,
2013-01-25 09:32:00,41.9,39.5,29.97,SSE,156,0.0,1.0,91,0.00,,,0.00,WeatherCatV1.12B45,2013-01-25 17:32:00,
2013-01-25 09:37:00,42.3,39.6,29.97,SSE,155,1.0,1.0,90,0.00,,,0.00,WeatherCatV1.12B45,2013-01-25 17:37:00,
2013-01-25 09:42:00,42.6,39.6,29.97,SE,131,0.0,1.0,89,0.00,,,0.00,WeatherCatV1.12B45,2013-01-25 17:42:00,
2013-01-25 09:47:00,42.8,39.8,29.97,WNW,293,0.0,2.0,89,0.00,,,0.00,WeatherCatV1.12B45,2013-01-25 17:47:00,
2013-01-25 09:52:00,43.0,40.0,29.97,East,93,0.0,1.0,89,0.00,,,0.00,WeatherCatV1.12B45,2013-01-25 17:52:00,
2013-01-25 09:57:00,43.4,40.1,29.97,SE,124,1.0,2.0,88,0.00,,,0.00,WeatherCatV1.12B45,2013-01-25 17:57:00,
2013-01-25 10:02:00,43.5,40.2,29.97,WNW,293,0.0,2.0,88,0.00,,,0.00,WeatherCatV1.12B45,2013-01-25 18:02:00,
2013-01-25 10:07:00,43.4,40.1,29.97,NW,305,2.0,2.0,88,0.00,,,0.00,WeatherCatV1.12B45,2013-01-25 18:07:00,
2013-01-25 10:12:00,43.7,40.4,29.97,SE,136,0.0,2.0,88,0.00,,,0.00,WeatherCatV1.12B45,2013-01-25 18:12:00,
2013-01-25 10:17:00,44.2,40.6,29.97,East,84,1.0,4.0,87,0.00,,,0.00,WeatherCatV1.12B45,2013-01-25 18:17:00,
2013-01-25 10:22:00,43.9,40.3,29.97,ENE,70,4.0,4.0,87,0.00,,,0.00,WeatherCatV1.12B45,2013-01-25 18:22:00,
2013-01-25 10:27:00,43.9,40.3,29.97,WNW,294,1.0,3.0,87,0.00,,,0.00,WeatherCatV1.12B45,2013-01-25 18:27:00,
2013-01-25 10:32:00,44.2,40.6,29.97,SE,131,0.0,1.0,87,0.00,,,0.00,WeatherCatV1.12B45,2013-01-25 18:32:00,
2013-01-25 10:37:00,44.8,40.9,29.97,North,352,0.0,1.0,86,0.00,,,0.00,WeatherCatV1.12B45,2013-01-25 18:37:00,
2013-01-25 10:42:00,45.4,41.5,29.97,WNW,290,0.0,1.0,86,0.00,,,0.00,WeatherCatV1.12B45,2013-01-25 18:42:00,
2013-01-25 10:47:00,45.6,41.0,29.97,ENE,70,3.0,4.0,84,0.00,,,0.00,WeatherCatV1.12B45,2013-01-25 18:47:00,
2013-01-25 10:52:00,45.2,41.0,29.96,East,79,0.0,1.0,85,0.00,,,0.00,WeatherCatV1.12B45,2013-01-25 18:52:00,
2013-01-25 10:57:00,45.6,41.7,29.96,East,98,1.0,1.0,86,0.00,,,0.00,WeatherCatV1.12B45,2013-01-25 18:57:00,
2013-01-25 11:02:00,45.8,41.5,29.96,ENE,70,3.0,3.0,85,0.00,,,0.00,WeatherCatV1.12B45,2013-01-25 19:02:00,
2013-01-25 11:07:00,45.8,40.9,29.96,ESE,114,0.0,3.0,83,0.00,,,0.00,WeatherCatV1.12B45,2013-01-25 19:07:00,
2013-01-25 11:12:00,45.7,41.1,29.96,East,92,2.0,4.0,84,0.00,,,0.00,WeatherCatV1.12B45,2013-01-25 19:12:00,
2013-01-25 11:17:00,45.8,40.9,29.96,SSE,153,2.0,4.0,83,0.00,,,0.00,WeatherCatV1.12B45,2013-01-25 19:17:00,
2013-01-25 11:22:00,45.7,40.5,29.96,South,172,6.0,6.0,82,0.00,,,0.00,WeatherCatV1.12B45,2013-01-25 19:22:00,
2013-01-25 11:27:00,45.7,41.1,29.96,South,169,4.0,7.0,84,0.00,,,0.00,WeatherCatV1.12B45,2013-01-25 19:27:00,
2013-01-25 11:32:00,45.5,41.0,29.96,SE,129,5.0,7.0,84,0.00,,,0.00,WeatherCatV1.12B45,2013-01-25 19:32:00,
2013-01-25 11:37:00,45.6,41.4,29.95,SSW,193,2.0,4.0,85,0.00,,,0.00,WeatherCatV1.12B45,2013-01-25 19:37:00,
2013-01-25 11:42:00,46.0,41.4,29.95,SSE,152,2.0,6.0,84,0.00,,,0.00,WeatherCatV1.12B45,2013-01-25 19:42:00,
2013-01-25 11:47:00,46.3,41.7,29.94,SSW,195,2.0,3.0,84,0.00,,,0.00,WeatherCatV1.12B45,2013-01-25 19:47:00,
2013-01-25 11:52:00,46.6,41.7,29.94,SE,128,2.0,5.0,83,0.00,,,0.00,WeatherCatV1.12B45,2013-01-25 19:52:00,
2013-01-25 11:57:00,46.9,41.7,29.94,SW,229,2.0,6.0,82,0.00,,,0.00,WeatherCatV1.12B45,2013-01-25 19:57:00,
2013-01-25 12:02:00,47.2,42.0,29.94,SW,218,1.0,3.0,82,0.00,,,0.00,WeatherCatV1.12B45,2013-01-25 20:02:00,
2013-01-25 12:07:00,47.7,42.8,29.94,WSW,238,3.0,3.0,83,0.00,,,0.00,WeatherCatV1.12B45,2013-01-25 20:07:00,
2013-01-25 12:12:00,47.6,43.0,29.93,SE,129,1.0,2.0,84,0.00,,,0.00,WeatherCatV1.12B45,2013-01-25 20:12:00,
2013-01-25 12:17:00,47.5,42.0,29.93,SSE,155,3.0,5.0,81,0.00,,,0.00,WeatherCatV1.12B45,2013-01-25 20:17:00,
2013-01-25 12:22:00,47.5,41.6,29.93,SE,139,3.0,4.0,80,0.00,,,0.00,WeatherCatV1.12B45,2013-01-25 20:22:00,
2013-01-25 12:27:00,47.6,41.7,29.93,SSE,149,2.0,3.0,80,0.00,,,0.00,WeatherCatV1.12B45,2013-01-25 20:27:00,
2013-01-25 12:32:00,47.9,42.7,29.93,ESE,110,3.0,3.0,82,0.00,,,0.00,WeatherCatV1.12B45,2013-01-25 20:32:00,
2013-01-25 12:37:00,48.1,42.9,29.92,SSW,209,0.0,3.0,82,0.00,,,0.00,WeatherCatV1.12B45,2013-01-25 20:37:00,
2013-01-25 12:42:00,48.6,43.4,29.92,South,190,1.0,1.0,82,0.00,,,0.00,WeatherCatV1.12B45,2013-01-25 20:42:00,
2013-01-25 12:47:00,48.6,43.0,29.92,SSE,153,1.0,1.0,81,0.00,,,0.00,WeatherCatV1.12B45,2013-01-25 20:47:00,
2013-01-25 12:52:00,48.3,42.7,29.92,SE,134,1.0,2.0,81,0.00,,,0.00,WeatherCatV1.12B45,2013-01-25 20:52:00,
2013-01-25 12:57:00,47.5,41.6,29.92,SE,140,0.0,2.0,80,0.00,,,0.00,WeatherCatV1.12B45,2013-01-25 20:57:00,
2013-01-25 13:02:00,47.5,42.3,29.92,SSE,159,1.0,3.0,82,0.00,,,0.00,WeatherCatV1.12B45,2013-01-25 21:02:00,
2013-01-25 13:07:00,47.8,42.9,29.91,SSW,198,3.0,3.0,83,0.00,,,0.00,WeatherCatV1.12B45,2013-01-25 21:07:00,
2013-01-25 13:12:00,47.5,42.3,29.91,SSW,207,5.0,9.0,82,0.00,,,0.00,WeatherCatV1.12B45,2013-01-25 21:12:00,
2013-01-25 13:17:00,46.6,42.3,29.91,South,184,6.0,7.0,85,0.00,,,0.00,WeatherCatV1.12B45,2013-01-25 21:17:00,
2013-01-25 13:22:00,46.0,42.0,29.91,SW,226,3.0,4.0,86,0.00,,,0.00,WeatherCatV1.12B45,2013-01-25 21:22:00,
2013-01-25 13:27:00,46.1,42.1,29.91,SSE,149,1.0,4.0,86,0.00,,,0.00,WeatherCatV1.12B45,2013-01-25 21:27:00,
2013-01-25 13:32:00,46.4,42.1,29.90,SSW,194,3.0,5.0,85,0.00,,,0.00,WeatherCatV1.12B45,2013-01-25 21:32:00,
2013-01-25 13:37:00,46.0,42.0,29.90,SSE,158,2.0,4.0,86,0.00,,,0.00,WeatherCatV1.12B45,2013-01-25 21:37:00,
2013-01-25 13:42:00,46.0,42.3,29.90,SSE,168,2.0,3.0,87,0.00,,,0.00,WeatherCatV1.12B45,2013-01-25 21:42:00,
2013-01-25 13:47:00,46.6,42.6,29.90,SW,215,3.0,4.0,86,0.00,,,0.00,WeatherCatV1.12B45,2013-01-25 21:47:00,
2013-01-25 13:52:00,46.3,42.3,29.90,SSW,212,3.0,4.0,86,0.00,,,0.00,WeatherCatV1.12B45,2013-01-25 21:52:00,
2013-01-25 13:57:00,46.2,42.2,29.90,South,186,3.0,6.0,86,0.00,,,0.00,WeatherCatV1.12B45,2013-01-25 21:57:00,
2013-01-25 14:02:00,46.5,42.5,29.90,SE,144,2.0,4.0,86,0.00,,,0.00,WeatherCatV1.12B45,2013-01-25 22:02:00,
2013-01-25 14:07:00,47.0,42.7,29.90,SW,229,4.0,5.0,85,0.00,,,0.00,WeatherCatV1.12B45,2013-01-25 22:07:00,
2013-01-25 14:12:00,47.1,42.8,29.90,SSW,207,2.0,3.0,85,0.00,,,0.00,WeatherCatV1.12B45,2013-01-25 22:12:00,
2013-01-25 14:17:00,47.3,43.0,29.90,SE,134,1.0,3.0,85,0.00,,,0.00,WeatherCatV1.12B45,2013-01-25 22:17:00,
2013-01-25 14:22:00,47.9,43.6,29.90,South,177,2.0,3.0,85,0.00,,,0.00,WeatherCatV1.12B45,2013-01-25 22:22:00,
2013-01-25 14:27:00,48.3,43.4,29.89,South,169,3.0,6.0,83,0.00,,,0.00,WeatherCatV1.12B45,2013-01-25 22:27:00,
2013-01-25 14:32:00,48.2,43.3,29.89,SE,136,3.0,4.0,83,0.00,,,0.00,WeatherCatV1.12B45,2013-01-25 22:32:00,
2013-01-25 14:37:00,48.4,43.2,29.89,SE,139,1.0,4.0,82,0.00,,,0.00,WeatherCatV1.12B45,2013-01-25 22:37:00,
2013-01-25 14:42:00,48.4,43.2,29.89,South,184,2.0,4.0,82,0.00,,,0.00,WeatherCatV1.12B45,2013-01-25 22:42:00,
2013-01-25 14:47:00,48.5,43.3,29.89,SSE,148,4.0,4.0,82,0.00,,,0.00,WeatherCatV1.12B45,2013-01-25 22:47:00,
2013-01-25 14:52:00,48.1,43.2,29.89,SW,215,4.0,4.0,83,0.00,,,0.00,WeatherCatV1.12B45,2013-01-25 22:52:00,
2013-01-25 14:57:00,48.2,43.0,29.89,SW,224,2.0,4.0,82,0.00,,,0.00,WeatherCatV1.12B45,2013-01-25 22:57:00,
2013-01-25 15:02:00,48.2,43.0,29.89,SE,142,2.0,3.0,82,0.00,,,0.00,WeatherCatV1.12B45,2013-01-25 23:02:00,
2013-01-25 15:07:00,48.1,43.2,29.89,SE,136,3.0,3.0,83,0.00,,,0.00,WeatherCatV1.12B45,2013-01-25 23:07:00,
2013-01-25 15:12:00,47.9,43.0,29.89,SSE,148,0.0,2.0,83,0.00,,,0.00,WeatherCatV1.12B45,2013-01-25 23:12:00,
2013-01-25 15:17:00,47.7,42.2,29.89,SSE,149,1.0,6.0,81,0.00,,,0.00,WeatherCatV1.12B45,2013-01-25 23:17:00,
2013-01-25 15:22:00,47.7,42.5,29.89,SSE,167,4.0,4.0,82,0.00,,,0.00,WeatherCatV1.12B45,2013-01-25 23:22:00,
2013-01-25 15:27:00,47.7,42.5,29.89,SSE,149,2.0,3.0,82,0.00,,,0.00,WeatherCatV1.12B45,2013-01-25 23:27:00,
2013-01-25 15:32:00,47.6,42.4,29.89,SSE,149,3.0,3.0,82,0.00,,,0.00,WeatherCatV1.12B45,2013-01-25 23:32:00,
2013-01-25 15:37:00,47.3,42.1,29.89,SSE,159,2.0,4.0,82,0.00,,,0.00,WeatherCatV1.12B45,2013-01-25 23:37:00,
2013-01-25 15:42:00,46.8,41.0,29.88,SE,134,7.0,8.0,80,0.00,,,0.00,WeatherCatV1.12B45,2013-01-25 23:42:00,
2013-01-25 15:47:00,46.5,40.3,29.88,East,99,6.0,8.0,79,0.00,,,0.00,WeatherCatV1.12B45,2013-01-25 23:47:00,
2013-01-25 15:52:00,46.3,39.8,29.88,East,87,5.0,7.0,78,0.00,,,0.00,WeatherCatV1.12B45,2013-01-25 23:52:00,
2013-01-25 15:57:00,46.5,40.0,29.88,ESE,113,1.0,5.0,78,0.00,,,0.00,WeatherCatV1.12B45,2013-01-25 23:57:00,
2013-01-25 16:02:00,46.8,40.0,29.88,ENE,77,1.0,4.0,77,0.00,,,0.00,WeatherCatV1.12B45,2013-01-26 00:02:00,
2013-01-25 16:07:00,46.6,39.4,29.88,SE,127,9.0,10.0,76,0.00,,,0.00,WeatherCatV1.12B45,2013-01-26 00:07:00,
2013-01-25 16:12:00,46.5,39.7,29.88,SE,133,2.0,4.0,77,0.00,,,0.00,WeatherCatV1.12B45,2013-01-26 00:12:00,
2013-01-25 16:17:00,46.4,39.6,29.88,ESE,103,4.0,5.0,77,0.00,,,0.00,WeatherCatV1.12B45,2013-01-26 00:17:00,
2013-01-25 16:22:00,46.5,39.3,29.88,ESE,112,2.0,7.0,76,0.00,,,0.00,WeatherCatV1.12B45,2013-01-26 00:22:00,
2013-01-25 16:27:00,46.6,39.4,29.88,SSE,149,2.0,9.0,76,0.00,,,0.00,WeatherCatV1.12B45,2013-01-26 00:27:00,
2013-01-25 16:32:00,46.6,39.1,29.88,ESE,104,3.0,8.0,75,0.00,,,0.00,WeatherCatV1.12B45,2013-01-26 00:32:00,
2013-01-25 16:37:00,46.4,38.9,29.88,ENE,72,3.0,4.0,75,0.00,,,0.00,WeatherCatV1.12B45,2013-01-26 00:37:00,
2013-01-25 16:42:00,46.1,38.6,29.87,ENE,75,2.0,4.0,75,0.00,,,0.00,WeatherCatV1.12B45,2013-01-26 00:42:00,
2013-01-25 16:47:00,45.9,38.4,29.87,East,79,1.0,6.0,75,0.00,,,0.00,WeatherCatV1.12B45,2013-01-26 00:47:00,
2013-01-25 16:52:00,45.9,37.7,29.86,SE,125,2.0,7.0,73,0.00,,,0.00,WeatherCatV1.12B45,2013-01-26 00:52:00,
2013-01-25 16:57:00,45.9,37.0,29.87,ESE,115,3.0,5.0,71,0.00,,,0.00,WeatherCatV1.12B45,2013-01-26 00:57:00,
2013-01-25 17:02:00,45.8,36.6,29.86,ESE,109,5.0,5.0,70,0.00,,,0.00,WeatherCatV1.12B45,2013-01-26 01:02:00,
2013-01-25 17:07:00,45.7,36.1,29.86,ENE,64,1.0,5.0,69,0.00,,,0.00,WeatherCatV1.12B45,2013-01-26 01:07:00,
2013-01-25 17:12:00,45.6,36.0,29.86,ENE,75,0.0,1.0,69,0.00,,,0.00,WeatherCatV1.12B45,2013-01-26 01:12:00,
2013-01-25 17:17:00,45.3,35.7,29.86,NW,318,0.0,0.0,69,0.00,,,0.00,WeatherCatV1.12B45,2013-01-26 01:17:00,
2013-01-25 17:22:00,44.7,36.2,29.86,NW,316,0.0,1.0,72,0.00,,,0.00,WeatherCatV1.12B45,2013-01-26 01:22:00,
2013-01-25 17:27:00,44.2,35.8,29.86,WNW,302,0.0,1.0,72,0.00,,,0.00,WeatherCatV1.12B45,2013-01-26 01:27:00,
2013-01-25 17:32:00,43.9,35.8,29.86,West,272,0.0,1.0,73,0.00,,,0.00,WeatherCatV1.12B45,2013-01-26 01:32:00,
2013-01-25 17:37:00,43.7,35.6,29.86,WNW,300,0.0,1.0,73,0.00,,,0.00,WeatherCatV1.12B45,2013-01-26 01:37:00,
2013-01-25 17:42:00,43.8,35.4,29.86,ENE,77,0.0,0.0,72,0.00,,,0.00,WeatherCatV1.12B45,2013-01-26 01:42:00,
2013-01-25 17:47:00,43.8,35.4,29.86,NNE,18,0.0,0.0,72,0.00,,,0.00,WeatherCatV1.12B45,2013-01-26 01:47:00,
2013-01-25 17:52:00,43.7,35.3,29.86,ENE,72,0.0,0.0,72,0.00,,,0.00,WeatherCatV1.12B45,2013-01-26 01:52:00,
2013-01-25 17:57:00,43.8,35.7,29.86,ENE,72,0.0,0.0,73,0.00,,,0.00,WeatherCatV1.12B45,2013-01-26 01:57:00,
2013-01-25 18:02:00,43.7,35.6,29.85,NE,35,0.0,0.0,73,0.00,,,0.00,WeatherCatV1.12B45,2013-01-26 02:02:00,
2013-01-25 18:07:00,43.4,35.3,29.85,NW,316,0.0,0.0,73,0.00,,,0.00,WeatherCatV1.12B45,2013-01-26 02:07:00,
2013-01-25 18:12:00,43.4,35.7,29.85,ENE,60,0.0,1.0,74,0.00,,,0.00,WeatherCatV1.12B45,2013-01-26 02:12:00,
2013-01-25 18:17:00,43.3,35.6,29.85,East,80,0.0,1.0,74,0.00,,,0.00,WeatherCatV1.12B45,2013-01-26 02:17:00,
2013-01-25 18:22:00,43.3,35.6,29.85,North,356,0.0,0.0,74,0.00,,,0.00,WeatherCatV1.12B45,2013-01-26 02:22:00,
2013-01-25 18:27:00,43.4,35.7,29.85,NNW,341,0.0,1.0,74,0.00,,,0.00,WeatherCatV1.12B45,2013-01-26 02:27:00,
2013-01-25 18:32:00,43.4,35.7,29.85,SE,129,2.0,4.0,74,0.00,,,0.00,WeatherCatV1.12B45,2013-01-26 02:32:00,
2013-01-25 18:37:00,43.9,35.5,29.85,SE,127,0.0,3.0,72,0.00,,,0.00,WeatherCatV1.12B45,2013-01-26 02:37:00,
2013-01-25 18:42:00,44.4,35.6,29.85,SE,131,3.0,8.0,71,0.00,,,0.00,WeatherCatV1.12B45,2013-01-26 02:42:00,
2013-01-25 18:47:00,44.8,35.6,29.85,ENE,70,3.0,3.0,70,0.00,,,0.00,WeatherCatV1.12B45,2013-01-26 02:47:00,
2013-01-25 18:52:00,44.8,35.6,29.85,ESE,121,3.0,3.0,70,0.00,,,0.00,WeatherCatV1.12B45,2013-01-26 02:52:00,
2013-01-25 18:57:00,44.7,35.5,29.85,SE,140,0.0,1.0,70,0.00,,,0.00,WeatherCatV1.12B45,2013-01-26 02:57:00,
2013-01-25 19:02:00,44.2,36.1,29.85,East,95,0.0,2.0,73,0.00,,,0.00,WeatherCatV1.12B45,2013-01-26 03:02:00,
2013-01-25 19:07:00,43.7,36.6,29.85,NNW,343,0.0,1.0,76,0.00,,,0.00,WeatherCatV1.12B45,2013-01-26 03:07:00,
2013-01-25 19:12:00,43.4,36.7,29.84,ENE,74,5.0,8.0,77,0.00,,,0.00,WeatherCatV1.12B45,2013-01-26 03:12:00,
2013-01-25 19:17:00,43.5,36.8,29.84,North,349,0.0,6.0,77,0.00,,,0.00,WeatherCatV1.12B45,2013-01-26 03:17:00,
2013-01-25 19:22:00,43.6,36.9,29.84,East,79,4.0,6.0,77,0.00,,,0.00,WeatherCatV1.12B45,2013-01-26 03:22:00,
2013-01-25 19:27:00,43.9,37.2,29.84,ENE,70,3.0,3.0,77,0.00,,,0.00,WeatherCatV1.12B45,2013-01-26 03:27:00,
2013-01-25 19:32:00,44.5,37.7,29.84,East,100,0.0,8.0,77,0.00,,,0.00,WeatherCatV1.12B45,2013-01-26 03:32:00,
2013-01-25 19:37:00,44.9,37.8,29.84,ESE,108,1.0,3.0,76,0.00,,,0.00,WeatherCatV1.12B45,2013-01-26 03:37:00,
2013-01-25 19:42:00,45.2,38.1,29.84,East,91,3.0,6.0,76,0.00,,,0.00,WeatherCatV1.12B45,2013-01-26 03:42:00,
2013-01-25 19:47:00,45.3,38.2,29.84,ESE,113,0.0,6.0,76,0.00,,,0.00,WeatherCatV1.12B45,2013-01-26 03:47:00,
2013-01-25 19:52:00,45.4,38.3,29.84,ENE,62,3.0,7.0,76,0.00,,,0.00,WeatherCatV1.12B45,2013-01-26 03:52:00,
2013-01-25 19:57:00,45.4,38.3,29.84,ESE,105,1.0,5.0,76,0.00,,,0.00,WeatherCatV1.12B45,2013-01-26 03:57:00,
2013-01-25 20:02:00,45.5,38.7,29.84,ESE,122,5.0,8.0,77,0.00,,,0.00,WeatherCatV1.12B45,2013-01-26 04:02:00,
2013-01-25 20:07:00,45.5,38.7,29.84,ESE,105,2.0,5.0,77,0.00,,,0.00,WeatherCatV1.12B45,2013-01-26 04:07:00,
2013-01-25 20:12:00,45.5,38.7,29.84,East,80,7.0,9.0,77,0.00,,,0.00,WeatherCatV1.12B45,2013-01-26 04:12:00,
2013-01-25 20:17:00,45.6,38.8,29.84,ENE,58,5.0,8.0,77,0.00,,,0.00,WeatherCatV1.12B45,2013-01-26 04:17:00,
2013-01-25 20:22:00,45.5,38.7,29.84,ESE,109,2.0,4.0,77,0.00,,,0.00,WeatherCatV1.12B45,2013-01-26 04:22:00,
2013-01-25 20:27:00,45.4,38.9,29.84,ENE,78,3.0,3.0,78,0.00,,,0.00,WeatherCatV1.12B45,2013-01-26 04:27:00,
2013-01-25 20:32:00,45.5,39.0,29.83,SE,134,6.0,6.0,78,0.00,,,0.00,WeatherCatV1.12B45,2013-01-26 04:32:00,
2013-01-25 20:37:00,45.5,39.0,29.83,ESE,120,0.0,4.0,78,0.00,,,0.00,WeatherCatV1.12B45,2013-01-26 04:37:00,
2013-01-25 20:42:00,45.3,38.9,29.83,East,91,2.0,5.0,78,0.00,,,0.00,WeatherCatV1.12B45,2013-01-26 04:42:00,
2013-01-25 20:47:00,45.2,38.8,29.83,NE,53,1.0,6.0,78,0.00,,,0.00,WeatherCatV1.12B45,2013-01-26 04:47:00,
2013-01-25 20:52:00,44.7,38.6,29.83,West,270,1.0,1.0,79,0.00,,,0.00,WeatherCatV1.12B45,2013-01-26 04:52:00,
2013-01-25 20:57:00,44.1,38.3,29.83,ESE,108,1.0,2.0,80,0.00,,,0.00,WeatherCatV1.12B45,2013-01-26 04:57:00,
2013-01-25 21:00:00,43.9,38.1,29.83,SSW,207,1.0,4.0,80,0.00,,,0.00,WeatherCatV1.12B45,2013-01-26 05:00:00,
2013-01-25 21:05:00,43.2,38.1,29.83,NW,312,2.0,5.0,82,0.00,,,0.00,WeatherCatV1.12B45,2013-01-26 05:05:00,
2013-01-25 21:10:00,43.0,37.9,29.83,ENE,72,4.0,4.0,82,0.00,,,0.00,WeatherCatV1.12B45,2013-01-26 05:10:00,
2013-01-25 21:15:00,42.8,38.0,29.83,West,263,1.0,4.0,83,0.00,,,0.00,WeatherCatV1.12B45,2013-01-26 05:15:00,
2013-01-25 21:20:00,42.5,38.0,29.83,NW,316,3.0,4.0,84,0.00,,,0.00,WeatherCatV1.12B45,2013-01-26 05:20:00,
2013-01-25 21:25:00,42.4,38.2,29.83,East,95,1.0,3.0,85,0.00,,,0.00,WeatherCatV1.12B45,2013-01-26 05:25:00,
2013-01-25 21:30:00,42.3,38.1,29.83,ESE,103,0.0,3.0,85,0.00,,,0.00,WeatherCatV1.12B45,2013-01-26 05:30:00,
2013-01-25 21:35:00,42.4,38.2,29.83,NNW,337,5.0,6.0,85,0.00,,,0.00,WeatherCatV1.12B45,2013-01-26 05:35:00,
2013-01-25 21:40:00,42.3,38.1,29.83,NNW,330,2.0,3.0,85,0.00,,,0.00,WeatherCatV1.12B45,2013-01-26 05:40:00,
2013-01-25 21:45:00,42.5,38.3,29.83,NW,304,0.0,1.0,85,0.00,,,0.00,WeatherCatV1.12B45,2013-01-26 05:45:00,
2013-01-25 21:50:00,42.6,38.4,29.83,NW,310,1.0,5.0,85,0.00,,,0.00,WeatherCatV1.12B45,2013-01-26 05:50:00,
2013-01-25 21:55:00,43.0,38.5,29.83,ENE,70,4.0,4.0,84,0.00,,,0.00,WeatherCatV1.12B45,2013-01-26 05:55:00,
2013-01-25 22:00:00,43.3,38.5,29.82,ENE,72,0.0,1.0,83,0.00,,,0.00,WeatherCatV1.12B45,2013-01-26 06:00:00,
2013-01-25 22:05:00,43.2,38.4,29.82,SW,233,1.0,2.0,83,0.00,,,0.00,WeatherCatV1.12B45,2013-01-26 06:05:00,
2013-01-25 22:10:00,43.3,38.2,29.82,NW,311,0.0,2.0,82,0.00,,,0.00,WeatherCatV1.12B45,2013-01-26 06:10:00,
2013-01-25 22:15:00,43.4,38.3,29.82,NNE,23,0.0,3.0,82,0.00,,,0.00,WeatherCatV1.12B45,2013-01-26 06:15:00,
2013-01-25 22:20:00,43.2,38.4,29.82,NNE,13,3.0,3.0,83,0.00,,,0.00,WeatherCatV1.12B45,2013-01-26 06:20:00,
2013-01-25 22:25:00,43.2,38.4,29.82,NW,314,2.0,2.0,83,0.00,,,0.00,WeatherCatV1.12B45,2013-01-26 06:25:00,
2013-01-25 22:30:00,43.3,38.2,29.82,ENE,62,1.0,2.0,82,0.00,,,0.00,WeatherCatV1.12B45,2013-01-26 06:30:00,
2013-01-25 22:35:00,43.1,38.3,29.82,NW,319,4.0,4.0,83,0.00,,,0.00,WeatherCatV1.12B45,2013-01-26 06:35:00,
2013-01-25 22:40:00,42.9,38.1,29.82,ENE,72,1.0,1.0,83,0.00,,,0.00,WeatherCatV1.12B45,2013-01-26 06:40:00,
2013-01-25 22:45:00,42.8,38.3,29.82,East,86,1.0,2.0,84,0.00,,,0.00,WeatherCatV1.12B45,2013-01-26 06:45:00,
2013-01-25 22:50:00,42.5,38.3,29.82,NNE,30,3.0,4.0,85,0.00,,,0.00,WeatherCatV1.12B45,2013-01-26 06:50:00,
2013-01-25 22:55:00,42.2,38.3,29.82,NNW,333,4.0,4.0,86,0.00,,,0.00,WeatherCatV1.12B45,2013-01-26 06:55:00,
2013-01-25 23:00:00,42.1,38.5,29.82,NW,322,4.0,4.0,87,0.00,,,0.00,WeatherCatV1.12B45,2013-01-26 07:00:00,
2013-01-25 23:05:00,42.0,38.4,29.82,NW,319,1.0,6.0,87,0.00,,,0.00,WeatherCatV1.12B45,2013-01-26 07:05:00,
2013-01-25 23:10:00,41.9,38.6,29.82,NNE,12,1.0,2.0,88,0.00,,,0.00,WeatherCatV1.12B45,2013-01-26 07:10:00,
2013-01-25 23:15:00,41.6,38.6,29.82,NNW,339,4.0,5.0,89,0.00,,,0.00,WeatherCatV1.12B45,2013-01-26 07:15:00,
2013-01-25 23:20:00,41.5,38.5,29.82,NW,314,3.0,5.0,89,0.00,,,0.00,WeatherCatV1.12B45,2013-01-26 07:20:00,
2013-01-25 23:25:00,41.6,38.6,29.81,NW,314,3.0,3.0,89,0.00,,,0.01,WeatherCatV1.12B45,2013-01-26 07:25:00,
2013-01-25 23:30:00,41.7,38.7,29.82,WNW,290,2.0,6.0,89,0.00,,,0.01,WeatherCatV1.12B45,2013-01-26 07:30:00,
2013-01-25 23:35:00,41.7,38.7,29.81,NNW,330,2.0,7.0,89,0.00,,,0.01,WeatherCatV1.12B45,2013-01-26 07:35:00,
2013-01-25 23:40:00,41.6,38.6,29.81,WNW,285,3.0,6.0,89,0.00,,,0.01,WeatherCatV1.12B45,2013-01-26 07:40:00,
2013-01-25 23:45:00,41.8,38.5,29.81,NNE,16,0.0,3.0,88,0.00,,,0.01,WeatherCatV1.12B45,2013-01-26 07:45:00,
2013-01-25 23:50:00,41.9,38.6,29.81,NNW,331,5.0,5.0,88,0.00,,,0.01,WeatherCatV1.12B45,2013-01-26 07:50:00,
2013-01-25 23:55:00,41.7,38.4,29.81,ESE,103,0.0,5.0,88,0.00,,,0.01,WeatherCatV1.12B45,2013-01-26 07:55:00,